Weather History for Klamath Falls, OR

Change the Weather History Date:

Monday, January 28, 2013

  Actual Average Record
Temperature  
Mean Temperature 31 °F 31 °F  
Max Temperature 34 °F 41 °F 56 °F (1976)
Min Temperature 28 °F 21 °F -4 °F (1972)
Degree Days  
Heating Degree Days 34 34  
Month to date heating degree days 1109 979  
Since 1 July heating degree days 3707 3880  
Cooling Degree Days 0 0  
Month to date cooling degree days 0 0  
Year to date cooling degree days 0 0  
Moisture  
Dew Point 26 °F    
Average Humidity 83    
Maximum Humidity 92    
Minimum Humidity 75    
Precipitation  
Precipitation T in 0.04 in 1.01 in (1958)
Month to date precipitation 0.44 1.76  
Year to date precipitation 0.44 1.76  
Sea Level Pressure  
Sea Level Pressure 30.13 in    
Wind  
Wind Speed 10 mph (West)    
Max Wind Speed 20 mph    
Max Gust Speed 24 mph    
Visibility 10 miles    
Events      
T = Trace of Precipitation, MM = Missing Value Source: NWS Daily Summary

Daily Weather History Graph

Daily Weather History Graph

Search for Another Location

Airport:

Trip Planner

Search our weather history database for the weather conditions in past years. The results will help you decide how hot, cold, wet, or windy it might be!

Date:

Astronomy

Jan. 28, 2013 Rise Set
Actual Time 7:23 AM PST 5:16 PM PST
Civil Twilight 6:53 AM PST 5:46 PM PST
Nautical Twilight 6:19 AM PST 6:20 PM PST
Astronomical Twilight 5:46 AM PST 6:53 PM PST
Moon 7:20 PM PST (1/28) 7:49 AM PST (1/28)
Length of Visible Light 10h 53m
Length of Day
9h 53m
Full, 97% of the Moon is Illuminated
Jan 28
Full
Feb 3
Last Quarter
Feb 9
New
Feb 17
First Quarter
Feb 25
Full

Hourly Weather History & Observations

Time (PST) Temp. Windchill Dew Point Humidity Pressure Visibility Wind Dir Wind Speed Gust Speed Precip Events Conditions
12:16 AM 28.4 °F 23.3 °F 26.6 °F 93% 30.02 in 8.0 mi WSW 4.6 mph - 0.00 in   Overcast
12:26 AM 28.4 °F 22.2 °F 24.8 °F 86% 30.02 in 10.0 mi SW 5.8 mph - 0.00 in   Overcast
12:53 AM 28.0 °F - 26.1 °F 92% 30.06 in 10.0 mi Calm Calm - 0.00 in   Overcast
1:27 AM 28.4 °F - 26.6 °F 93% 30.02 in 10.0 mi Calm Calm - N/A   Overcast
1:53 AM 28.9 °F - 26.1 °F 89% 30.07 in 10.0 mi Calm Calm - N/A   Overcast
2:40 AM 28.4 °F 21.2 °F 24.8 °F 86% 30.03 in 10.0 mi West 6.9 mph - N/A   Overcast
2:53 AM 28.9 °F 21.1 °F 25.0 °F 85% 30.08 in 10.0 mi West 8.1 mph - N/A   Overcast
3:53 AM 28.9 °F 20.4 °F 25.0 °F 85% 30.08 in 10.0 mi West 9.2 mph - N/A   Mostly Cloudy
4:53 AM 28.9 °F 21.1 °F 25.0 °F 85% 30.09 in 10.0 mi WNW 8.1 mph - N/A   Overcast
5:53 AM 28.9 °F 21.9 °F 25.0 °F 85% 30.10 in 10.0 mi West 6.9 mph - N/A   Overcast
6:00 AM 28.4 °F 23.3 °F 24.8 °F 86% 30.05 in 10.0 mi West 4.6 mph - N/A   Mostly Cloudy
6:53 AM 28.9 °F 21.9 °F 24.1 °F 82% 30.11 in 10.0 mi West 6.9 mph - N/A   Mostly Cloudy
7:53 AM 28.9 °F 22.8 °F 24.1 °F 82% 30.13 in 10.0 mi WNW 5.8 mph - N/A   Mostly Cloudy
8:53 AM 30.9 °F 25.2 °F 24.1 °F 76% 30.15 in 10.0 mi NW 5.8 mph - N/A   Mostly Cloudy
9:53 AM 32.0 °F 22.5 °F 26.1 °F 79% 30.16 in 10.0 mi West 12.7 mph - N/A   Overcast
10:53 AM 32.0 °F 21.6 °F 27.0 °F 82% 30.18 in 10.0 mi West 15.0 mph - N/A   Overcast
11:53 AM 33.1 °F 23.0 °F 26.1 °F 75% 30.18 in 10.0 mi West 15.0 mph - N/A   Overcast
12:53 PM 33.1 °F 23.9 °F 27.0 °F 78% 30.18 in 10.0 mi West 12.7 mph - N/A   Overcast
1:53 PM 34.0 °F 25.0 °F 27.0 °F 75% 30.16 in 10.0 mi West 12.7 mph - N/A   Overcast
2:53 PM 33.1 °F 23.9 °F 28.0 °F 82% 30.17 in 10.0 mi WSW 12.7 mph - N/A   Overcast
3:53 PM 34.0 °F 26.6 °F 27.0 °F 75% 30.16 in 10.0 mi West 9.2 mph - N/A   Mostly Cloudy
4:53 PM 34.0 °F 26.0 °F 28.0 °F 79% 30.19 in 10.0 mi West 10.4 mph - N/A   Mostly Cloudy
5:53 PM 33.1 °F 25.5 °F 28.0 °F 82% 30.19 in 10.0 mi West 9.2 mph - N/A   Mostly Cloudy
6:53 PM 33.1 °F 24.4 °F 27.0 °F 78% 30.20 in 7.0 mi West 11.5 mph - N/A   Mostly Cloudy
7:53 PM 33.1 °F 25.5 °F 28.0 °F 82% 30.19 in 7.0 mi West 9.2 mph - N/A   Mostly Cloudy
8:53 PM 32.0 °F 24.2 °F 28.0 °F 85% 30.21 in 7.0 mi WSW 9.2 mph - N/A   Mostly Cloudy
9:53 PM 32.0 °F 22.5 °F 28.0 °F 85% 30.21 in 7.0 mi WSW 12.7 mph - N/A   Mostly Cloudy
10:53 PM 32.0 °F 20.8 °F 27.0 °F 82% 30.20 in 10.0 mi WSW 17.3 mph - N/A   Overcast
11:53 PM 32.0 °F 23.0 °F 27.0 °F 82% 30.19 in 10.0 mi WSW 11.5 mph - N/A   Overcast